Pella, IA

3:19 PM CDT on October 01, 2016 (GMT -0500)
Pella Municipal

Weather History for KPEA - December, 2012

Change the Weather History Date:

Saturday, December 8, 2012

  Actual Average (KOXV) Record (KOXV)
Temperature  
Mean Temperature 31 °F -  
Max Temperature 37 °F 35 °F 57 °F (1991)
Min Temperature 25 °F 20 °F -3 °F (1976)
Degree Days  
Heating Degree Days 34    
Moisture  
Dew Point 29 °F    
Average Humidity 85    
Maximum Humidity 94    
Minimum Humidity 78    
Precipitation  
Precipitation 0.00 in - - ()
Sea Level Pressure  
Sea Level Pressure 29.99 in    
Wind  
Wind Speed 3 mph (East)    
Max Wind Speed 9 mph    
Max Gust Speed -    
Visibility 8 miles    
Events      
Averages and records for this station are not official NWS values.
T = Trace of Precipitation, MM = Missing Value Source: NWS Daily Summary

Daily Weather History Graph

Daily Weather History Graph

Search for Another Location

Airport or City:

Trip Planner

Search our weather history database for the weather conditions in past years. The results will help you decide how hot, cold, wet, or windy it might be!

Date:

Astronomy

Dec. 08, 2012 Rise Set
Actual Time 7:25 AM CST 4:42 PM CST
Civil Twilight 6:54 AM CST 5:13 PM CST
Nautical Twilight 6:19 AM CST 5:47 PM CST
Astronomical Twilight 5:46 AM CST 6:21 PM CST
Moon 1:48 AM CST (12/8) 1:15 PM CST (12/8)
Length of Visible Light 10h 18m
Length of Day
9h 16m
Waning Crescent, 28% of the Moon is Illuminated
Dec 8
Waning Crescent
Dec 13
New
Dec 19
First Quarter
Dec 28
Full
Jan 4
Last Quarter

Hourly Weather History & Observations

Time (CST) Temp. Windchill Dew Point Humidity Pressure Visibility Wind Dir Wind Speed Gust Speed Precip Events Conditions
12:15 AM 37.0 °F - 30.7 °F 78% 29.96 in 10.0 mi Calm Calm - N/A   Scattered Clouds
12:35 AM 36.1 °F - 30.7 °F 81% 29.95 in 10.0 mi Calm Calm - N/A   Clear
12:55 AM 35.6 °F - 30.6 °F 82% 29.96 in 10.0 mi Calm Calm - N/A   Clear
1:15 AM 34.7 °F - 30.7 °F 85% 29.94 in 10.0 mi Calm Calm - N/A   Clear
1:35 AM 34.7 °F - 30.6 °F 85% 29.95 in 10.0 mi Calm Calm - N/A   Clear
1:55 AM 32.0 °F 27.5 °F 29.1 °F 89% 29.95 in 10.0 mi NNW 4.6 mph - N/A   Clear
2:15 AM 32.0 °F 27.5 °F 29.5 °F 90% 29.96 in 10.0 mi NNW 4.6 mph - N/A   Clear
2:35 AM 32.0 °F 26.4 °F 29.5 °F 90% 29.96 in 10.0 mi NNW 5.8 mph - N/A   Clear
2:55 AM 30.6 °F 25.8 °F 27.3 °F 88% 29.96 in 10.0 mi North 4.6 mph - N/A   Clear
3:15 AM 30.9 °F 24.3 °F 26.8 °F 85% 29.97 in 10.0 mi NNW 6.9 mph - N/A   Clear
3:35 AM 28.9 °F 23.9 °F 24.6 °F 84% 29.96 in 10.0 mi North 4.6 mph - N/A   Clear
3:55 AM 28.9 °F 23.9 °F 24.8 °F 84% 29.97 in 10.0 mi North 4.6 mph - N/A   Clear
4:15 AM 28.4 °F 24.6 °F 24.6 °F 86% 29.98 in 10.0 mi North 3.5 mph - N/A   Clear
4:35 AM 27.3 °F 22.0 °F 23.7 °F 86% 29.98 in 10.0 mi North 4.6 mph - N/A   Clear
4:55 AM 27.3 °F 23.4 °F 23.9 °F 87% 29.99 in 10.0 mi North 3.5 mph - N/A   Clear
5:15 AM 27.0 °F - 23.5 °F 87% 29.99 in 10.0 mi Calm Calm - N/A   Clear
5:35 AM 26.6 °F 22.6 °F 23.4 °F 88% 29.99 in 10.0 mi NNE 3.5 mph - N/A   Clear
5:55 AM 25.9 °F 21.7 °F 22.8 °F 88% 30.00 in 10.0 mi NNE 3.5 mph - N/A   Clear
6:15 AM 26.4 °F - 23.9 °F 90% 30.00 in 10.0 mi Calm Calm - N/A   Clear
6:35 AM 26.6 °F - 23.9 °F 90% 30.00 in 10.0 mi Calm Calm - N/A   Clear
6:55 AM 26.2 °F - 23.5 °F 90% 30.02 in 10.0 mi Calm Calm - N/A   Clear
7:15 AM 26.6 °F - 23.7 °F 89% 30.02 in 10.0 mi Calm Calm - N/A   Clear
7:35 AM 25.7 °F - 23.2 °F 90% 30.01 in 10.0 mi Calm Calm - N/A   Clear
7:55 AM 26.8 °F - 24.4 °F 91% 30.02 in 10.0 mi Calm Calm - N/A   Clear
8:15 AM 27.5 °F - 24.1 °F 87% 30.02 in 10.0 mi Calm Calm - N/A   Clear
8:35 AM 28.9 °F 25.2 °F 24.8 °F 84% 30.03 in 10.0 mi North 3.5 mph - N/A   Clear
8:55 AM 29.3 °F 25.6 °F 24.6 °F 83% 30.03 in 10.0 mi NNE 3.5 mph - N/A   Clear
9:15 AM 30.2 °F - 24.8 °F 80% 30.04 in 10.0 mi Calm Calm - N/A   Clear
9:35 AM 31.5 °F 26.8 °F 26.1 °F 80% 30.03 in 10.0 mi ESE 4.6 mph - N/A   Clear
9:55 AM 32.0 °F 27.5 °F 26.1 °F 79% 30.04 in 10.0 mi East 4.6 mph - N/A   Clear
10:15 AM 33.4 °F 28.1 °F 27.7 °F 79% 30.04 in 10.0 mi ESE 5.8 mph - N/A   Clear
10:35 AM 34.9 °F 30.8 °F 29.1 °F 79% 30.04 in 10.0 mi ESE 4.6 mph - N/A   Clear
10:55 AM 35.6 °F 31.7 °F 30.0 °F 80% 30.04 in 7.0 mi East 4.6 mph - N/A   Clear
11:15 AM 33.4 °F 28.1 °F 28.9 °F 84% 30.04 in 5.0 mi SE 5.8 mph - N/A   Scattered Clouds
11:35 AM 32.9 °F 29.8 °F 31.1 °F 93% 30.03 in 2.0 mi ESE 3.5 mph - N/A   Overcast
11:55 AM 33.6 °F 28.4 °F 32.0 °F 94% 30.02 in 2.0 mi SE 5.8 mph - N/A   Overcast
12:15 PM 33.8 °F 29.6 °F 32.0 °F 93% 30.03 in 2.0 mi ESE 4.6 mph - N/A   Overcast
12:35 PM 34.0 °F 29.8 °F 32.0 °F 92% 30.02 in 2.5 mi SE 4.6 mph - N/A   Overcast
12:55 PM 34.7 °F 31.8 °F 32.4 °F 91% 30.01 in 2.5 mi ESE 3.5 mph - N/A   Overcast
1:15 PM 35.1 °F 29.3 °F 32.4 °F 90% 30.00 in 3.0 mi ESE 6.9 mph - N/A   Overcast
1:35 PM 35.6 °F 31.7 °F 32.2 °F 87% 30.00 in 4.0 mi ESE 4.6 mph - N/A   Mostly Cloudy
1:55 PM 36.5 °F 32.7 °F 32.7 °F 86% 29.99 in 4.0 mi ESE 4.6 mph - N/A   Overcast
2:35 PM 37.4 °F - 32.0 °F 81% 29.99 in 5.0 mi Calm Calm - N/A   Haze
2:55 PM 37.8 °F - 32.0 °F 80% 29.99 in 7.0 mi Calm Calm - N/A   Scattered Clouds
3:15 PM 37.8 °F - 32.0 °F 80% 29.99 in 7.0 mi Calm Calm - N/A   Scattered Clouds
3:35 PM 37.8 °F - 32.0 °F 80% 29.98 in 7.0 mi Calm Calm - N/A   Scattered Clouds
3:55 PM 37.8 °F - 32.2 °F 80% 29.99 in 7.0 mi Calm Calm - N/A   Clear
4:15 PM 37.6 °F 35.1 °F 32.4 °F 81% 29.99 in 5.0 mi SSE 3.5 mph - N/A   Haze
4:35 PM 37.4 °F 34.9 °F 32.5 °F 83% 29.99 in 7.0 mi SE 3.5 mph - N/A   Clear
4:55 PM 37.2 °F 34.7 °F 32.5 °F 83% 29.99 in 7.0 mi ESE 3.5 mph - N/A   Clear
5:15 PM 37.4 °F 32.1 °F 32.9 °F 84% 29.99 in 7.0 mi SE 6.9 mph - N/A   Clear
5:35 PM 37.4 °F 31.4 °F 32.5 °F 83% 29.99 in 10.0 mi SE 8.1 mph - N/A   Clear
5:55 PM 36.9 °F 30.1 °F 32.2 °F 83% 29.98 in 7.0 mi SE 9.2 mph - N/A   Clear
6:15 PM 36.9 °F 30.1 °F 32.0 °F 83% 29.98 in 7.0 mi SE 9.2 mph - N/A   Clear
6:35 PM 36.5 °F 30.3 °F 32.0 °F 84% 29.98 in 7.0 mi SE 8.1 mph - N/A   Clear
6:55 PM 36.5 °F 29.7 °F 32.0 °F 84% 29.98 in 7.0 mi ESE 9.2 mph - N/A   Clear
7:15 PM 36.5 °F 31.8 °F 32.0 °F 84% 29.98 in 7.0 mi East 5.8 mph - N/A   Clear
7:35 PM 36.5 °F 31.0 °F 32.0 °F 84% 29.99 in 10.0 mi ESE 6.9 mph - N/A   Clear
7:55 PM 36.5 °F 31.0 °F 32.0 °F 84% 29.99 in 7.0 mi ESE 6.9 mph - N/A   Clear
8:15 PM 36.5 °F 30.3 °F 32.0 °F 84% 29.99 in 7.0 mi ESE 8.1 mph - N/A   Clear
8:35 PM 36.0 °F 30.3 °F 32.0 °F 86% 29.99 in 7.0 mi ESE 6.9 mph - N/A   Scattered Clouds
8:55 PM 35.8 °F 29.4 °F 32.0 °F 86% 29.99 in 7.0 mi ESE 8.1 mph - N/A   Scattered Clouds
9:15 PM 35.8 °F 28.8 °F 32.2 °F 87% 29.97 in 7.0 mi ESE 9.2 mph - N/A   Clear
9:35 PM 35.6 °F 28.6 °F 32.4 °F 88% 29.99 in 7.0 mi SE 9.2 mph - N/A   Clear
9:55 PM 36.5 °F 29.7 °F 32.5 °F 86% 29.99 in 7.0 mi ESE 9.2 mph - N/A   Mostly Cloudy
10:15 PM 36.5 °F 31.8 °F 32.5 °F 86% 29.99 in 7.0 mi ESE 5.8 mph - N/A   Mostly Cloudy
10:35 PM 36.5 °F 30.3 °F 32.7 °F 86% 29.98 in 7.0 mi East 8.1 mph - N/A   Overcast
10:55 PM 36.5 °F 31.0 °F 32.5 °F 86% 29.98 in 10.0 mi ESE 6.9 mph - N/A   Overcast
11:15 PM 36.5 °F 30.3 °F 32.9 °F 87% 29.97 in 7.0 mi East 8.1 mph - N/A   Overcast
11:35 PM 36.5 °F 30.3 °F 32.9 °F 87% 29.96 in 7.0 mi ESE 8.1 mph - N/A   Overcast
11:55 PM 36.7 °F 30.5 °F 33.4 °F 88% 29.96 in 7.0 mi ESE 8.1 mph - N/A   Overcast